Regional Weather Roundup
Issued by NWS Portland, ME

Current Version | Previous Version | Text Only | Print | Product List | Glossary On
Versions: 1 2 3 4 5 6 7 8 9 10 11 12 13 14 15 16 17 18 19 20 21 22 23 24 25 26 27 28 29 30 31 32 33 34 35 36 37 38 39 40 41 42 43 44 45 46 47 48 49 50
055
ASUS41 KGYX 171010
RWRGYX
WEATHER ROUNDUP FOR MAINE AND NEW HAMPSHIRE
NATIONAL WEATHER SERVICE GRAY ME
600 AM EDT TUE SEP 17 2019

MEZ002-005-006-010-012-015-018-020-021-024-026-027-029-171100-
MAINE

CITY           SKY/WX    TMP DP  RH WIND       PRES   REMARKS
PORTLAND       FAIR      46  43  89 W6        30.06R
SANFORD        FAIR      39  39 100 CALM      30.07R
BAR HARBOR     CLOUDY    56  52  86 N6        30.04R
WISCASSET      FAIR      49  47  93 CALM      30.07R
ROCKLAND       CLOUDY    52  49  89 W6        30.04R
FRYEBURG       FAIR      38  36  92 CALM      30.09R FOG
LEWISTONAUBURN CLOUDY    46  44  93 N3        30.08R
AUGUSTA        CLOUDY    54  47  77 NW6       30.07R
WATERVILLE     CLOUDY    54  48  80 N6        30.04R
BANGOR         CLOUDY    56  52  86 N9        30.05R
GREENVILLE       N/A     50  48  93 N6        30.06R
MILLINOCKET    CLOUDY    54  48  80 N6        30.08R
HOULTON        MOCLDY    47  44  90 N3        30.06R
PRESQUE ISLE   CLOUDY    49  45  86 N7        30.10R
FRENCHVILLE    CLOUDY    46  43  89 N9        30.09R
CARIBOU        CLOUDY    49  44  83 N7        30.08R
$$

NHZ002-005-008-009-011-012-014-171100-
NEW HAMPSHIRE

CITY           SKY/WX    TMP DP  RH WIND       PRES   REMARKS
ROCHESTER      FAIR      48  43  82 NW8       30.06S
NASHUA         FAIR      45  45 100 CALM      30.10R
MANCHESTER     FAIR      49  44  83 CALM      30.07R
CONCORD        FAIR      41  38  89 CALM      30.09S
LACONIA        FAIR      43  43 100 CALM      30.10R
PLYMOUTH       FAIR      46  44  96 N5        30.10R
BERLIN         CLOUDY    38  36  92 CALM      30.12R
WHITEFIELD     FOG       35  34  96 CALM      30.13R VSB 3/4
JAFFREY        FAIR      41  39  93 CALM      30.11R
KEENE          CLOUDY    38  38 100 CALM      30.14R FOG
LEBANON        CLOUDY    41  36  82 CALM      30.13R HAZE
MT WASHINGTON  FOG       32  32 100 N32G45      N/A  VSB 0   WCI  17
$$

VTZ005-007-008-171100-
VERMONT

CITY           SKY/WX    TMP DP  RH WIND       PRES   REMARKS
ST JOHNSBURY     N/A     41  41 100 MISG      30.13R
MONTPELIER     FOG       39  39 100 SE3       30.17  VSB 1/2
BURLINGTON     FAIR      46  43  89 CALM      30.15R
$$

MAZ007-012-024-CTZ003-RIZ002-NYZ038-NYZ072-171100-
SOUTHERN NEW ENGLAND AND NY

CITY           SKY/WX    TMP DP  RH WIND       PRES   REMARKS
BOSTON         FAIR      59  44  57 NW9       30.07R
WORCESTER      FAIR      53  43  68 NW12      30.10R
NANTUCKET      FAIR      60  53  77 N9        30.05R
PROVIDENCE     FAIR      55  46  71 N9        30.08R
HARTFORD       FAIR      48  46  93 CALM      30.11R
ALBANY         FAIR      49  46  90 CALM      30.16R
NEW YORK CITY  FAIR      64  49  57 NE9       30.10R
$$

ANZ081-ANZ082-ANZ150-NHZ014-MEZ023>029-171100-
COASTAL MARINE OBSERVATIONS

STATION/POSITION TIME  TEMP    WIND        PRES    WAVE
                       AIR SEA DIR/SP/G            HT/PER
                 (UTC) (F)     (DEG/KT/KT) (MB)    (FT/S)
MOUNT DESERT ROC 1000          340/ 16/ 17 1016.4R
MATINICUS ROCK   0950   57                 1016.4R
ISLE OF SHOALS   0900   57     320/ 14/ 16 1017.0S
JEFFREYS LEDGE   0938      64                N/A     3/13
CASHES LEDGE BUO 0950   59 58  330/ 14/ 16 1017.1R   3/12
GEORGES BANK BUO 0950   60 60              1015.7R   4/13
$$

.............KEY..............
   WCI - WIND CHILL
   TC  - TEMPERATURE IN CELSIUS
   VSB - VISIBILITY IN MILES
   HX  - HEAT INDEX
   FAIR- INDICATES FEW OR NO CLOUDS BELOW 12,000 FT, WITH NO
         SIGNIFICANT WEATHER AND/OR OBSTRUCTIONS TO VISIBILITY.






USA.gov is the U.S. government's official web portal to all federal, state and local government web resources and services.